DL1NER Weather Reports


time (UTC)temp
C
wind
direction
speed
KPH
gust
KPH
rain 1hr
cm
rain 24hr
cm
rain mn
cm
humidity
%
barometer
mb
20260510095012 22 129 6.4 19.3 0.00 0.00 0.00 49 1011.3
20260510094012 22 128 4.8 16.1 0.00 0.00 0.00 49 1011.4
20260510092011 21 134 6.4 16.1 0.00 0.00 0.00 49 1011.5
20260510091011 21 101 6.4 12.9 0.00 0.00 0.00 51 1011.6
20260510090011 20 88 8.0 16.1 0.00 0.00 0.00 50 1011.7
20260510085012 20 129 3.2 9.7 0.00 0.00 0.00 52 1011.9
20260510084011 20 84 3.2 11.3 0.00 0.00 0.00 53 1012.1
20260510083011 19 88 4.8 12.9 0.00 0.00 0.00 52 1012.2
20260510081011 18 80 6.4 14.5 0.00 0.00 0.00 64 1012.5
20260510074010 17 148 3.2 12.9 0.00 0.00 0.00 63 1012.6
20260510073010 16 80 3.2 8.0 0.00 0.00 0.00 66 1012.6
20260510072010 16 80 4.8 11.3 0.00 0.00 0.00 67 1012.7
20260510070008 14 115 4.8 11.3 0.00 0.00 0.00 74 1013.0
20260510065008 13 79 6.4 11.3 0.00 0.00 0.00 75 1013.2
20260510064008 13 79 6.4 11.3 0.00 0.00 0.00 75 1013.2
20260510063008 11 94 3.2 9.7 0.00 0.00 0.00 87 1013.2
20260510062008 11 94 3.2 9.7 0.00 0.00 0.00 87 1013.2
20260510061009 10 103 1.6 9.7 0.00 0.00 0.00 90 1013.1
20260510060009 10 83 3.2 11.3 0.00 0.00 0.00 92 1013.1
20260510055008 10 163 1.6 8.0 0.00 0.00 0.00 93 1013.2
20260510054012 9 240 0.0 3.2 0.00 0.00 0.00 93 1013.3
20260510053013 9 240 0.0 3.2 0.00 0.00 0.00 92 1013.4
20260510052012 8 240 0.0 1.6 0.00 0.00 0.00 92 1013.3
20260510051012 8 240 0.0 0.0 0.00 0.00 0.00 92 1013.4
20260510050012 7 240 0.0 0.0 0.00 0.00 0.00 92 1013.5
20260510044012 7 240 0.0 0.0 0.00 0.00 0.00 91 1013.8
20260510043012 7 240 0.0 0.0 0.00 0.00 0.00 91 1013.9
20260510042012 7 240 0.0 0.0 0.00 0.00 0.00 90 1013.8
20260510041012 7 240 0.0 0.0 0.00 0.00 0.00 89 1013.7
20260510035012 7 240 0.0 0.0 0.00 0.00 0.00 87 1013.6
20260510033012 7 240 0.0 0.0 0.00 0.00 0.00 87 1013.6
20260510032012 7 240 0.0 1.6 0.00 0.00 0.00 87 1013.7
20260510031011 7 166 0.0 0.0 0.00 0.00 0.00 86 1013.8
20260510030011 7 36 0.0 0.0 0.00 0.00 0.00 86 1013.9
20260510025011 7 36 0.0 0.0 0.00 0.00 0.00 86 1013.9
20260510024011 7 36 0.0 0.0 0.00 0.00 0.00 84 1014.0
20260510023011 7 36 0.0 0.0 0.00 0.00 0.00 83 1014.0
20260510022011 7 36 0.0 0.0 0.00 0.00 0.00 83 1014.1
20260510021011 8 36 0.0 0.0 0.00 0.00 0.00 83 1014.0
20260510020011 8 36 0.0 0.0 0.00 0.00 0.00 83 1014.1
20260510015011 8 36 0.0 0.0 0.00 0.00 0.00 83 1014.1
20260510014011 8 36 0.0 0.0 0.00 0.00 0.00 83 1014.1
20260510013011 8 36 0.0 3.2 0.00 0.00 0.00 82 1014.3
20260510012011 8 36 0.0 3.2 0.00 0.00 0.00 80 1014.3
20260510011011 8 36 0.0 1.6 0.00 0.00 0.00 79 1014.3
20260510010011 8 36 0.0 0.0 0.00 0.00 0.00 79 1014.3
20260510005011 9 36 0.0 3.2 0.00 0.00 0.00 79 1014.4
20260510004011 9 36 1.6 3.2 0.00 0.00 0.00 78 1014.5
20260510003011 9 36 0.0 4.8 0.00 0.00 0.00 78 1014.6
20260510002011 9 38 0.0 0.0 0.00 0.00 0.00 77 1014.7
20260510000011 10 38 0.0 0.0 0.00 0.00 0.00 74 1014.9
20260509235010 10 38 0.0 0.0 0.00 0.00 0.00 73 1014.9
20260509234011 10 38 0.0 0.0 0.00 0.00 0.00 73 1014.9
20260509233011 10 38 0.0 0.0 0.00 0.00 0.00 73 1014.9
20260509232010 10 38 0.0 0.0 0.00 0.00 0.00 72 1015.3
20260509231010 10 38 0.0 0.0 0.00 0.00 0.00 72 1015.5
20260509230010 11 38 0.0 0.0 0.00 0.00 0.00 72 1015.6
20260509225010 11 38 0.0 0.0 0.00 0.00 0.00 71 1015.7
20260509224010 11 38 0.0 0.0 0.00 0.00 0.00 71 1015.7
20260509223010 11 38 0.0 0.0 0.00 0.00 0.00 70 1015.6
20260509222010 11 38 0.0 3.2 0.00 0.00 0.00 70 1015.6
20260509221010 12 38 1.6 3.2 0.00 0.00 0.00 69 1015.5
20260509220010 12 38 0.0 3.2 0.00 0.00 0.00 69 1015.4
20260509215011 12 38 0.0 3.2 0.00 0.00 0.00 67 1015.3
20260509214010 13 38 0.0 0.0 0.00 0.00 0.00 66 1015.4
20260509213011 13 38 0.0 1.6 0.00 0.00 0.00 66 1015.4
20260509212011 13 38 0.0 0.0 0.00 0.00 0.00 64 1015.3
20260509211010 13 38 0.0 0.0 0.00 0.00 0.00 63 1015.4
20260509210011 14 38 0.0 0.0 0.00 0.00 0.00 61 1015.5
20260509201011 16 31 0.0 4.8 0.00 0.00 0.00 57 1015.7
20260509200010 16 31 1.6 4.8 0.00 0.00 0.00 56 1015.7
20260509195009 16 31 1.6 4.8 0.00 0.00 0.00 55 1015.5
20260509194011 16 31 1.6 4.8 0.00 0.00 0.00 54 1015.6
20260509193009 17 31 1.6 4.8 0.00 0.00 0.00 53 1015.4
20260509192010 17 31 1.6 4.8 0.00 0.00 0.00 53 1015.4
20260509191009 18 31 4.8 9.7 0.00 0.00 0.00 52 1015.2
20260509190009 18 31 4.8 9.7 0.00 0.00 0.00 52 1015.2
20260509185009 18 47 4.8 8.0 0.00 0.00 0.00 52 1015.2
20260509184009 19 29 3.2 6.4 0.00 0.00 0.00 52 1015.2
20260509183009 19 27 3.2 12.9 0.00 0.00 0.00 51 1015.2
20260509181010 19 24 3.2 8.0 0.00 0.00 0.00 50 1015.2
20260509180009 20 345 3.2 8.0 0.00 0.00 0.00 50 1015.1
20260509175009 20 316 4.8 11.3 0.00 0.00 0.00 49 1015.0
20260509174016 20 316 4.8 11.3 0.00 0.00 0.00 49 1015.0
20260509173009 20 67 3.2 8.0 0.00 0.00 0.00 47 1015.0
20260509172014 20 67 3.2 8.0 0.00 0.00 0.00 47 1015.0
20260509171013 20 74 3.2 6.4 0.00 0.00 0.00 46 1015.1
20260509170013 21 78 4.8 9.7 0.00 0.00 0.00 48 1015.0
20260509165013 21 17 4.8 11.3 0.00 0.00 0.00 46 1015.0
20260509164013 21 82 6.4 11.3 0.00 0.00 0.00 48 1015.0
20260509162013 21 83 6.4 14.5 0.00 0.00 0.00 46 1015.3
20260509160013 21 20 1.6 8.0 0.00 0.00 0.00 46 1015.5
20260509154013 21 90 3.2 8.0 0.00 0.00 0.00 45 1015.5
20260509153013 22 348 4.8 11.3 0.00 0.00 0.00 43 1015.6
20260509152013 22 33 6.4 16.1 0.00 0.00 0.00 43 1015.7
20260509151013 22 38 4.8 16.1 0.00 0.00 0.00 44 1015.7
20260509150013 22 343 3.2 11.3 0.00 0.00 0.00 43 1015.9
20260509144014 22 78 6.4 12.9 0.00 0.00 0.00 47 1016.1
20260509143012 21 5 4.8 12.9 0.00 0.00 0.00 47 1016.2
20260509142013 21 350 4.8 9.7 0.00 0.00 0.00 46 1016.3
20260509141013 21 355 4.8 9.7 0.00 0.00 0.00 47 1016.5
20260509140012 21 86 3.2 9.7 0.00 0.00 0.00 45 1016.6
20260509135012 22 75 3.2 11.3 0.00 0.00 0.00 43 1016.8
20260509134012 22 119 3.2 9.7 0.00 0.00 0.00 43 1016.8
20260509133012 22 118 3.2 12.9 0.00 0.00 0.00 46 1016.9
20260509132012 22 114 4.8 14.5 0.00 0.00 0.00 46 1017.0
20260509131013 22 83 4.8 14.5 0.00 0.00 0.00 45 1017.1
20260509130012 21 80 3.2 11.3 0.00 0.00 0.00 49 1017.3
20260509125012 22 96 3.2 11.3 0.00 0.00 0.00 45 1017.4
20260509123012 21 176 3.2 11.3 0.00 0.00 0.00 50 1017.6
20260509122012 21 96 1.6 4.8 0.00 0.00 0.00 50 1017.7
20260509121012 21 24 3.2 6.4 0.00 0.00 0.00 51 1017.7
20260509120012 21 47 1.6 8.0 0.00 0.00 0.00 50 1017.8
20260509115012 20 344 3.2 8.0 0.00 0.00 0.00 50 1017.8
20260509114012 20 109 3.2 6.4 0.00 0.00 0.00 49 1017.9
20260509113012 20 40 3.2 9.7 0.00 0.00 0.00 49 1018.0
20260509112012 20 138 3.2 8.0 0.00 0.00 0.00 49 1018.1
20260509110012 19 80 3.2 11.3 0.00 0.00 0.00 52 1018.5
20260509105012 18 102 4.8 16.1 0.00 0.00 0.00 51 1018.5
20260509104012 18 45 1.6 11.3 0.00 0.00 0.00 52 1018.6
20260509103011 18 98 4.8 11.3 0.00 0.00 0.00 52 1018.7
20260509102011 19 39 3.2 12.9 0.00 0.00 0.00 51 1018.7
20260509101011 18 96 3.2 8.0 0.00 0.00 0.00 51 1018.8
20260509100012 18 44 4.8 11.3 0.00 0.00 0.00 52 1018.7